• In Czech Republic
  • List of Countries
  • For 7 days
  • Water Temperature
  • Satellite Maps
  • Weather Map
  • Weather Widgets
  • user-avatar
    Login

    Hourly Weather Chester

    Today, 21 October, Saturday

    Time Temperature Precipitation Wind Pressure Humidity
    00:00 +12°C° 0 mm 7 mps 746 mmHg 88%
    01:00 +12°C° 0.1 mm 7 mps 746 mmHg 88%
    02:00 +12°C° 0.1 mm 7 mps 745 mmHg 88%
    03:00 +11°C° 0.1 mm 7 mps 745 mmHg 87%
    04:00 +11°C° 0 mm 8 mps 745 mmHg 85%
    05:00 +11°C° 0 mm 8 mps 744 mmHg 84%
    06:00 +10°C° 0 mm 6 mps 744 mmHg 86%
    07:00 +10°C° 0.4 mm 8 mps 743 mmHg 85%
    08:00 +11°C° 0.4 mm 9 mps 743 mmHg 84%
    09:00 +11°C° 0.4 mm 10 mps 742 mmHg 83%
    10:00 +11°C° 0.2 mm 10 mps 742 mmHg 81%
    11:00 +12°C° 0.2 mm 10 mps 741 mmHg 79%
    12:00 +12°C° 0.2 mm 10 mps 741 mmHg 78%
    13:00 +12°C° 1 mm 10 mps 740 mmHg 81%
    14:00 +12°C° 1 mm 9 mps 740 mmHg 84%
    15:00 +11°C° 1 mm 9 mps 740 mmHg 87%
    16:00 +12°C° 1.7 mm 10 mps 740 mmHg 86%
    17:00 +12°C° 1.7 mm 10 mps 741 mmHg 85%
    18:00 +12°C° 1.7 mm 11 mps 742 mmHg 84%
    19:00 +11°C° 0.1 mm 11 mps 743 mmHg 83%
    20:00 +11°C° 0.1 mm 11 mps 745 mmHg 82%
    21:00 +11°C° 0.1 mm 10 mps 746 mmHg 82%
    22:00 +9°C° 0.3 mm 10 mps 747 mmHg 82%
    23:00 +9°C° 0.3 mm 10 mps 747 mmHg 83%

    Tomorrow, 22 October, Sunday

    Time Temperature Precipitation Wind Pressure Humidity
    00:00 +9°C° 0.3 mm 10 mps 748 mmHg 83%
    01:00 +8°C° 0.5 mm 11 mps 749 mmHg 83%
    02:00 +8°C° 0.5 mm 11 mps 749 mmHg 84%
    03:00 +8°C° 0.5 mm 11 mps 750 mmHg 84%
    04:00 +8°C° 1.9 mm 12 mps 751 mmHg 84%
    05:00 +8°C° 1.9 mm 12 mps 751 mmHg 84%
    06:00 +8°C° 1.9 mm 12 mps 752 mmHg 84%
    07:00 +8°C° 0.3 mm 11 mps 753 mmHg 82%
    08:00 +8°C° 0.3 mm 11 mps 754 mmHg 79%
    09:00 +8°C° 0.3 mm 10 mps 755 mmHg 77%
    10:00 +8°C° 0 mm 10 mps 756 mmHg 75%
    11:00 +9°C° 0 mm 10 mps 756 mmHg 73%
    12:00 +9°C° 0 mm 10 mps 757 mmHg 71%
    13:00 +10°C° 0.1 mm 9 mps 758 mmHg 72%
    14:00 +11°C° 0.1 mm 9 mps 758 mmHg 73%
    15:00 +11°C° 0.1 mm 8 mps 758 mmHg 73%
    16:00 +10°C° 0.1 mm 7 mps 759 mmHg 76%
    17:00 +10°C° 0.1 mm 7 mps 759 mmHg 80%
    18:00 +10°C° 0.1 mm 6 mps 760 mmHg 83%
    19:00 +9°C° 0.1 mm 6 mps 760 mmHg 84%
    20:00 +9°C° 0.1 mm 5 mps 760 mmHg 85%
    21:00 +9°C° 0.1 mm 5 mps 761 mmHg 87%
    22:00 +10°C° 0.1 mm 4 mps 761 mmHg 88%
    23:00 +10°C° 0.1 mm 4 mps 761 mmHg 89%

    Day after tomorrow, 23 October, Monday

    Time Temperature Precipitation Wind Pressure Humidity
    00:00 +10°C° 0.1 mm 4 mps 761 mmHg 90%
    01:00 +10°C° 0.5 mm 4 mps 760 mmHg 91%
    02:00 +11°C° 0.5 mm 4 mps 760 mmHg 93%
    03:00 +11°C° 0.5 mm 4 mps 760 mmHg 94%
    04:00 +11°C° 1 mm 4 mps 759 mmHg 94%
    05:00 +12°C° 1 mm 4 mps 759 mmHg 94%
    06:00 +12°C° 1 mm 4 mps 759 mmHg 94%
    07:00 +13°C° 0.2 mm 4 mps 759 mmHg 94%
    08:00 +13°C° 0.2 mm 4 mps 759 mmHg 94%
    09:00 +14°C° 0.2 mm 4 mps 759 mmHg 94%
    10:00 +14°C° 0.2 mm 4 mps 759 mmHg 94%
    11:00 +15°C° 0.2 mm 4 mps 759 mmHg 93%
    12:00 +15°C° 0.2 mm 4 mps 759 mmHg 93%
    13:00 +15°C° 0 mm 4 mps 760 mmHg 92%
    14:00 +16°C° 0 mm 3 mps 760 mmHg 91%
    15:00 +17°C° 0 mm 3 mps 760 mmHg 90%
    16:00 +16°C° 0 mm 2 mps 760 mmHg 91%
    17:00 +15°C° 0 mm 2 mps 761 mmHg 93%
    18:00 +14°C° 0 mm 1 mps 761 mmHg 94%
    19:00 +13°C° 0 mm 1 mps 761 mmHg 94%
    20:00 +13°C° 0 mm 2 mps 761 mmHg 95%
    21:00 +12°C° 0 mm 2 mps 761 mmHg 95%
    22:00 +12°C° 0 mm 3 mps 761 mmHg 95%
    23:00 +12°C° 0 mm 3 mps 761 mmHg 95%

    24 October, Tuesday

    Time Temperature Precipitation Wind Pressure Humidity
    00:00 +13°C° 0 mm 4 mps 760 mmHg 95%
    01:00 +13°C° 0.1 mm 4 mps 760 mmHg 96%
    02:00 +14°C° 0.1 mm 4 mps 760 mmHg 96%
    03:00 +15°C° 0.1 mm 5 mps 760 mmHg 96%
    04:00 +15°C° 0 mm 5 mps 760 mmHg 96%
    05:00 +15°C° 0 mm 5 mps 760 mmHg 96%
    06:00 +16°C° 0 mm 5 mps 760 mmHg 95%
    07:00 +16°C° 0.2 mm 5 mps 760 mmHg 94%
    08:00 +16°C° 0.2 mm 5 mps 760 mmHg 94%
    09:00 +17°C° 0.2 mm 5 mps 760 mmHg 93%
    10:00 +17°C° 0.2 mm 5 mps 760 mmHg 92%
    11:00 +17°C° 0.2 mm 5 mps 761 mmHg 91%
    12:00 +17°C° 0.2 mm 5 mps 761 mmHg 91%
    13:00 +17°C° 0.9 mm 5 mps 761 mmHg 91%
    14:00 +17°C° 0.9 mm 5 mps 761 mmHg 92%
    15:00 +16°C° 0.9 mm 5 mps 761 mmHg 93%
    16:00 +16°C° 0.5 mm 5 mps 761 mmHg 92%
    17:00 +16°C° 0.5 mm 5 mps 761 mmHg 92%
    18:00 +16°C° 0.5 mm 5 mps 761 mmHg 91%
    19:00 +16°C° 0.1 mm 6 mps 760 mmHg 92%
    20:00 +16°C° 0.1 mm 6 mps 760 mmHg 92%
    21:00 +16°C° 0.1 mm 6 mps 760 mmHg 92%
    22:00 +16°C° 0.1 mm 6 mps 761 mmHg 91%
    23:00 +16°C° 0.1 mm 6 mps 761 mmHg 90%

    25 October, Wednesday

    Time Temperature Precipitation Wind Pressure Humidity
    00:00 +15°C° 0.1 mm 7 mps 761 mmHg 90%
    01:00 +15°C° 0.3 mm 6 mps 761 mmHg 91%
    02:00 +15°C° 0.3 mm 6 mps 761 mmHg 91%
    03:00 +15°C° 0.3 mm 5 mps 761 mmHg 92%
    04:00 +15°C° 0.6 mm 5 mps 761 mmHg 92%
    05:00 +15°C° 0.6 mm 5 mps 762 mmHg 92%
    06:00 +15°C° 0.6 mm 4 mps 762 mmHg 92%
    07:00 +15°C° 0.1 mm 4 mps 762 mmHg 92%
    08:00 +15°C° 0.1 mm 4 mps 763 mmHg 92%
    09:00 +16°C° 0.1 mm 3 mps 763 mmHg 92%
    10:00 +16°C° 0.6 mm 3 mps 763 mmHg 92%
    11:00 +17°C° 0.6 mm 3 mps 763 mmHg 91%
    12:00 +17°C° 0.6 mm 3 mps 764 mmHg 91%
    13:00 +17°C° 0.3 mm 2 mps 764 mmHg 91%
    14:00 +17°C° 0.3 mm 2 mps 764 mmHg 91%
    15:00 +17°C° 0.3 mm 2 mps 764 mmHg 91%
    16:00 +16°C° 0 mm 1 mps 764 mmHg 92%
    17:00 +16°C° 0 mm 1 mps 765 mmHg 93%
    18:00 +16°C° 0 mm 1 mps 765 mmHg 94%
    19:00 +16°C° 0 mm 1 mps 765 mmHg 94%
    20:00 +15°C° 0 mm 1 mps 766 mmHg 94%
    21:00 +15°C° 0 mm 2 mps 766 mmHg 95%
    22:00 +15°C° 0 mm 2 mps 766 mmHg 95%
    23:00 +15°C° 0 mm 2 mps 766 mmHg 95%

    26 October, Thursday

    Time Temperature Precipitation Wind Pressure Humidity
    00:00 +14°C° 0 mm 2 mps 766 mmHg 95%
    01:00 +14°C° 0 mm 1 mps 766 mmHg 95%
    02:00 +13°C° 0 mm 1 mps 766 mmHg 95%
    03:00 +13°C° 0 mm 1 mps 766 mmHg 95%
    04:00 +13°C° 0 mm 1 mps 766 mmHg 95%
    05:00 +12°C° 0 mm 1 mps 766 mmHg 95%
    06:00 +12°C° 0 mm 1 mps 766 mmHg 95%
    07:00 +13°C° 0 mm 1 mps 766 mmHg 93%
    08:00 +13°C° 0 mm 1 mps 766 mmHg 91%
    09:00 +14°C° 0 mm 1 mps 766 mmHg 90%
    10:00 +15°C° 0 mm 1 mps 766 mmHg 85%
    11:00 +16°C° 0 mm 1 mps 766 mmHg 81%
    12:00 +18°C° 0 mm 1 mps 766 mmHg 77%
    13:00 +18°C° 0 mm 1 mps 766 mmHg 77%
    14:00 +18°C° 0 mm 1 mps 766 mmHg 78%
    15:00 +18°C° 0 mm 1 mps 766 mmHg 78%
    16:00 +16°C° 0 mm 1 mps 766 mmHg 82%
    17:00 +15°C° 0 mm 1 mps 766 mmHg 87%
    18:00 +14°C° 0 mm 1 mps 766 mmHg 91%
    19:00 +13°C° 0 mm 1 mps 766 mmHg 92%
    20:00 +13°C° 0 mm 1 mps 767 mmHg 93%
    21:00 +12°C° 0 mm 1 mps 767 mmHg 94%
    22:00 +12°C° 0 mm 1 mps 767 mmHg 95%
    23:00 +12°C° 0 mm 1 mps 767 mmHg 95%
    Show more